Weather History for KAGS - February, 2013

Change the Weather History Date:

Monday, February 4, 2013

  Actual Average Record
Temperature  
Mean Temperature 41 °F 47 °F  
Max Temperature 53 °F 60 °F 80 °F (1927)
Min Temperature 29 °F 34 °F 12 °F (1970)
Degree Days  
Heating Degree Days 24 18  
Month to date heating degree days 89 72  
Since 1 July heating degree days 1414 1657  
Cooling Degree Days 0 0  
Month to date cooling degree days 0 0  
Year to date cooling degree days 15 1  
Moisture  
Dew Point 28 °F    
Average Humidity 64    
Maximum Humidity 92    
Minimum Humidity 35    
Precipitation  
Precipitation 0.00 in 0.13 in 2.35 in (1877)
Month to date precipitation T 0.53  
Year to date precipitation 0.60 4.44  
Sea Level Pressure  
Sea Level Pressure 30.09 in    
Wind  
Wind Speed 1 mph (SSE)    
Max Wind Speed 8 mph    
Max Gust Speed 12 mph    
Visibility 10 miles    
Events      
T = Trace of Precipitation, MM = Missing Value Source: NWS Daily Summary

Daily Weather History Graph

Daily Weather History Graph

Search for Another Location

Airport or City:

Trip Planner

Search our weather history database for the weather conditions in past years. The results will help you decide how hot, cold, wet, or windy it might be!

Date:

Astronomy

Feb. 04, 2013 Rise Set
Actual Time 7:21 AM EST 6:02 PM EST
Civil Twilight 6:55 AM EST 6:28 PM EST
Nautical Twilight 6:25 AM EST 6:58 PM EST
Astronomical Twilight 5:56 AM EST 7:27 PM EST
Moon 1:52 AM EST (2/4) 12:29 PM EST (2/4)
Length of Visible Light 11h 33m
Length of Day
10h 41m
Last Quarter, 37% of the Moon is Illuminated
Feb 4
Last Quarter
Feb 10
New
Feb 17
First Quarter
Feb 25
Full
Mar 4
Last Quarter

Hourly Weather History & Observations

Time (EST) Temp. Windchill Dew Point Humidity Pressure Visibility Wind Dir Wind Speed Gust Speed Precip Events Conditions
12:53 AM 37.0 °F - 26.1 °F 65% 30.06 in 10.0 mi Calm Calm - N/A   Clear
1:53 AM 33.1 °F - 26.1 °F 75% 30.07 in 10.0 mi Calm Calm - N/A   Clear
2:53 AM 36.0 °F 33.3 °F 25.0 °F 64% 30.07 in 10.0 mi WNW 3.5 mph - N/A   Clear
3:53 AM 36.0 °F 32.1 °F 25.0 °F 64% 30.07 in 10.0 mi NW 4.6 mph - N/A   Clear
5:53 AM 30.9 °F - 25.0 °F 79% 30.09 in 10.0 mi Calm Calm - N/A   Clear
6:53 AM 30.0 °F - 26.1 °F 85% 30.11 in 10.0 mi Calm Calm - N/A   Clear
7:53 AM 30.9 °F - 28.0 °F 89% 30.12 in 10.0 mi Calm Calm - N/A   Clear
8:53 AM 37.0 °F - 30.9 °F 79% 30.16 in 10.0 mi Calm Calm - N/A   Clear
9:53 AM 39.9 °F - 30.9 °F 70% 30.16 in 10.0 mi Calm Calm - N/A   Clear
10:53 AM 45.0 °F 41.8 °F 25.0 °F 46% 30.16 in 10.0 mi SE 5.8 mph - N/A   Clear
11:53 AM 46.9 °F - 26.1 °F 44% 30.16 in 10.0 mi Variable 3.5 mph - N/A   Clear
12:53 PM 48.9 °F - 26.1 °F 41% 30.12 in 10.0 mi SSE 3.5 mph - N/A   Clear
1:53 PM 51.1 °F - 26.1 °F 38% 30.11 in 10.0 mi Variable 4.6 mph - N/A   Clear
2:53 PM 52.0 °F - 25.0 °F 35% 30.09 in 10.0 mi SE 3.5 mph - N/A   Clear
3:53 PM 51.1 °F - 26.1 °F 38% 30.08 in 10.0 mi Calm Calm - N/A   Clear
4:53 PM 51.1 °F - 27.0 °F 39% 30.06 in 10.0 mi Calm Calm - N/A   Clear
5:53 PM 48.9 °F - 28.0 °F 44% 30.06 in 10.0 mi Calm Calm - N/A   Clear
6:53 PM 43.0 °F - 30.9 °F 62% 30.06 in 10.0 mi Calm Calm - N/A   Clear
7:53 PM 39.0 °F - 30.9 °F 73% 30.09 in 10.0 mi Calm Calm - N/A   Clear
8:53 PM 37.0 °F - 30.9 °F 79% 30.08 in 10.0 mi Calm Calm - N/A   Clear
9:53 PM 37.0 °F - 30.9 °F 79% 30.09 in 10.0 mi Calm Calm - N/A   Clear
10:53 PM 37.0 °F - 32.0 °F 82% 30.08 in 10.0 mi Calm Calm - N/A   Clear
11:53 PM 37.9 °F - 33.1 °F 83% 30.06 in 10.0 mi Calm Calm - N/A   Clear